Theta_e
268 269 274 272 270 269 265 265 263 264 263 266 265 265 267 271 275 276 278 279 280 281 282 283 283 284 284 284 285 285 284 283 283 283 282 281 280 280 280 280 280 280 280 281
267 270 274 273 272 271 268 266 266 267 265 269 268 267 266 268 270 272 274 276 278 279 279 280 281 281 282 282 283 283 282 281 281 281 280 279 278 278 277 277 278 278 278 278
266 269 270 268 271 270 269 268 266 261 265 269 266 265 265 266 267 268 270 273 274 275 277 278 278 279 278 279 280 280 280 280 279 278 277 276 276 276 275 275 275 276 277 277
263 266 265 275 276 274 272 270 268 267 267 268 269 268 267 267 266 266 268 271 272 273 275 276 277 277 278 278 277 276 276 276 276 276 275 275 275 274 274 274 273 274 274 276
264 262 275 274 273 271 269 270 270 268 267 268 274 275 268 268 268 268 268 270 271 273 273 274 274 275 275 274 274 274 273 273 274 274 273 273 273 273 273 273 272 272 273 273
260 261 265 270 273 276 274 271 271 269 267 267 272 266 265 267 268 268 270 269 269 271 272 272 272 273 273 272 272 272 272 272 273 273 272 271 272 271 272 272 272 272 272 272
260 261 269 269 273 276 269 271 267 267 268 267 264 262 264 267 267 268 268 269 269 269 268 270 272 271 270 270 270 272 272 272 272 272 271 271 270 270 270 270 270 269 270 271
258 261 265 270 273 271 267 264 263 264 266 266 263 263 265 266 266 267 266 267 268 267 266 268 270 270 268 267 269 270 269 269 269 270 271 271 269 269 269 268 267 267 267 268
268 268 268 266 265 266 264 265 265 269 269 270 268 267 267 266 266 266 266 266 267 266 265 265 266 268 266 266 267 267 266 265 266 267 269 270 268 269 268 267 266 266 266 265
271 271 267 266 268 268 269 272 274 273 272 271 268 267 266 266 265 265 265 265 265 265 264 263 264 265 265 266 266 264 263 264 264 264 265 266 268 268 268 268 266 266 265 264
273 273 271 272 273 272 271 272 272 272 271 270 268 266 265 265 265 265 264 264 264 263 262 262 262 262 262 263 264 264 264 264 263 263 262 263 264 268 267 269 269 265 260 262
273 277 276 276 275 275 273 272 272 271 269 269 269 267 266 264 264 264 263 263 262 261 260 260 259 259 258 258 260 262 262 261 261 260 260 260 260 260 268 270 271 271 271 269
278 278 276 275 275 275 273 272 271 270 270 267 267 266 265 263 263 262 260 260 259 258 257 256 256 255 254 255 256 257 258 258 258 258 257 257 256 256 255 259 266 267 268 269
275 274 271 272 271 272 270 269 267 265 264 265 264 262 261 260 259 259 258 256 255 254 252 250 252 251 249 250 252 253 253 254 254 253 253 253 253 252 250 249 251 254 260 265
273 269 273 273 271 269 267 266 264 264 263 260 258 259 259 257 256 256 252 251 252 249 249 249 250 249 247 248 253 252 255 253 250 250 250 250 250 251 248 248 248 249 249 258
267 266 268 271 269 267 265 264 265 265 262 259 259 259 259 257 255 251 249 248 253 253 248 248 249 248 245 248 249 250 249 255 251 247 247 248 248 248 249 249 248 250 252 254
268 263 261 261 267 266 266 267 268 266 263 261 260 258 256 254 251 249 248 246 248 247 247 248 250 246 245 246 249 247 246 247 249 245 245 244 244 245 245 244 246 247 248 250
269 276 274 272 270 268 266 265 264 263 263 262 258 257 255 255 257 254 251 246 247 249 247 248 246 246 246 246 247 246 246 245 244 245 244 245 245 244 243 243 244 244 249 249
266 271 270 271 271 270 268 265 263 262 259 259 257 257 257 255 254 252 249 248 249 250 253 247 257 249 248 247 247 245 245 245 245 244 243 246 245 244 243 243 244 245 247 249
262 262 267 266 267 268 266 265 262 261 260 259 257 255 255 254 253 253 250 253 255 254 251 250 248 249 248 247 252 245 245 244 245 245 244 244 244 245 245 246 245 245 246 247
270 266 267 267 266 263 267 264 264 261 259 260 259 258 258 257 254 253 250 254 256 252 250 251 249 249 247 248 248 245 244 244 245 245 244 244 243 244 246 244 245 247 247 247
267 267 266 265 265 264 263 264 265 262 260 259 260 258 256 255 254 254 253 258 253 255 253 252 252 254 253 255 252 251 246 245 245 244 244 244 243 245 246 245 247 248 248 248
267 265 264 264 265 263 260 263 263 262 261 260 260 259 260 260 258 256 257 258 253 254 255 256 256 258 258 255 253 250 249 248 247 247 245 244 245 245 244 246 247 247 247 248
263 264 264 261 260 261 261 258 261 261 262 261 261 261 261 257 254 256 253 256 257 259 257 257 259 264 262 258 256 256 254 255 254 253 251 251 246 245 244 247 248 248 247 248
261 260 260 261 262 263 263 259 258 258 259 259 259 259 260 259 261 260 255 256 260 259 259 261 262 264 260 258 258 258 257 256 255 253 252 250 249 245 246 247 247 247 247 247
260 262 262 262 263 264 261 260 262 259 259 258 257 258 258 257 258 259 259 259 260 259 260 260 261 260 259 259 259 258 258 257 256 255 253 252 248 247 248 248 248 248 248 247
254 257 256 255 254 260 260 261 261 259 260 261 259 257 258 258 259 259 260 259 260 260 260 260 260 259 260 260 259 259 258 257 256 256 254 253 248 247 248 249 248 248 249 249
Wind_Speed
6 3 0 13 16 20 18 12 7 9 11 17 19 19 18 16 16 22 23 23 21 19 18 17 17 18 20 21 21 22 21 21 21 19 18 18 18 18 17 19 17 18 18 18
5 4 4 10 22 19 17 15 6 10 10 17 15 15 18 19 20 23 23 21 19 21 20 19 16 18 20 22 21 18 19 19 18 17 17 17 17 17 17 18 18 18 19 18
7 7 5 5 20 11 11 15 6 10 9 15 13 16 19 19 21 20 19 17 18 20 18 16 19 17 20 18 17 19 19 18 16 17 18 17 17 18 17 18 16 18 18 18
4 8 10 5 11 3 6 20 19 11 12 9 3 11 18 21 20 19 16 17 19 15 15 16 16 18 18 18 18 18 19 17 16 16 17 17 17 16 16 15 17 16 16 16
5 2 1 3 9 8 6 11 18 16 17 15 3 4 20 21 18 15 14 11 12 13 15 17 16 15 17 18 17 18 18 16 15 15 15 15 16 15 14 14 14 15 14 15
5 7 5 4 5 6 1 11 15 16 16 16 15 15 6 17 16 15 16 14 14 15 15 18 15 14 18 18 17 18 16 16 15 15 16 16 14 14 13 12 12 11 13 14
3 2 6 3 13 4 6 1 4 5 8 11 6 1 5 9 11 12 11 14 13 14 16 15 12 13 18 16 17 14 15 15 15 15 16 14 13 12 12 12 12 12 12 11
2 5 5 5 3 7 4 2 3 2 2 3 4 6 5 8 11 12 14 14 14 14 15 14 13 13 17 16 12 12 14 14 14 14 12 10 12 11 12 10 11 10 9 8
5 6 4 3 4 3 4 4 2 3 3 4 4 5 7 8 10 12 13 11 12 11 13 13 13 12 15 10 10 11 13 12 12 11 10 11 11 10 9 9 8 8 7 7
3 4 4 4 2 3 5 4 4 4 5 6 6 5 5 6 7 8 9 10 9 10 12 12 10 11 10 9 8 10 12 11 10 11 10 10 9 8 9 8 8 7 7 6
3 2 1 6 7 7 5 4 6 5 4 6 6 5 4 5 6 7 7 7 7 8 8 9 8 10 9 8 5 11 11 10 10 9 10 8 8 7 7 8 10 6 2 2
7 11 6 6 12 12 11 9 8 7 6 5 4 6 5 5 5 5 6 5 7 8 8 8 8 10 10 9 7 9 11 8 7 6 6 6 6 6 14 14 17 18 19 12
6 9 3 8 12 10 10 11 9 8 6 9 5 6 5 4 3 5 5 6 7 6 6 5 7 9 8 7 7 9 9 6 5 6 6 6 6 7 8 8 13 18 20 17
9 13 5 4 8 9 8 8 7 6 5 5 6 4 4 5 3 4 5 2 3 4 6 4 5 7 6 4 6 7 6 6 5 4 4 4 5 3 2 3 7 8 12 15
9 4 4 10 11 9 6 9 8 8 7 5 3 6 7 7 6 5 2 2 4 5 4 4 4 4 5 4 6 6 5 4 3 2 3 3 3 3 3 2 2 4 4 8
7 6 4 12 15 11 9 9 8 10 9 6 7 7 7 5 6 5 2 3 5 3 2 2 3 3 3 2 4 4 4 6 5 3 3 3 3 4 4 4 3 4 5 7
10 2 3 3 14 16 18 15 12 12 11 12 12 9 8 7 6 4 2 1 4 4 3 3 2 2 2 3 4 2 3 3 3 3 3 2 2 2 2 2 3 4 4 5
2 10 13 9 20 18 12 11 9 12 13 11 10 10 10 11 10 8 7 4 3 2 2 4 3 1 2 2 3 3 3 1 1 1 2 3 3 2 2 2 3 4 4 4
3 9 11 11 14 13 12 12 10 9 10 12 13 13 9 6 6 6 7 4 4 4 5 4 6 4 2 3 3 3 2 1 1 2 3 3 2 3 3 3 3 3 4 5
4 3 7 8 10 13 12 9 11 11 10 12 10 9 9 7 7 8 6 8 7 5 6 6 5 4 5 1 3 2 1 2 2 3 2 2 2 4 3 4 3 3 3 4
11 8 10 11 9 6 11 12 14 13 12 13 15 14 13 9 9 9 7 6 7 8 7 7 5 3 2 1 2 2 2 3 3 2 2 2 3 4 4 3 3 4 4 3
8 9 9 9 11 10 9 13 13 13 14 13 11 10 10 10 10 8 4 6 2 10 6 4 3 4 3 4 2 3 2 3 3 2 3 2 3 4 4 3 4 4 4 4
9 7 7 9 10 9 7 8 10 13 15 15 16 15 14 9 10 10 9 10 4 6 5 4 6 7 7 4 4 3 3 3 3 3 3 3 3 3 3 4 4 4 4 4
7 7 6 6 8 8 11 8 8 8 9 9 10 11 11 8 2 3 1 5 11 11 6 5 7 9 9 4 4 4 3 3 3 3 3 4 3 3 3 4 4 4 4 5
5 6 7 8 9 8 7 10 7 6 8 8 7 8 8 4 5 8 5 4 9 9 6 9 11 10 5 4 4 3 3 3 3 3 3 3 4 3 4 4 4 4 4 4
8 8 7 7 6 6 7 9 9 8 8 7 5 6 5 4 3 6 7 7 7 8 5 5 5 4 4 4 4 4 3 3 3 3 3 3 3 4 4 4 4 4 4 4
3 5 4 2 1 5 7 8 8 9 9 8 7 6 7 7 6 6 8 7 6 6 5 4 4 5 4 3 3 3 3 3 4 3 3 3 3 4 4 4 4 4 5 4
Wind_Direction
278 235 282 23 19 20 28 7 37 332 26 7 360 349 349 358 20 43 48 49 51 59 62 60 62 63 64 64 61 63 67 68 67 69 67 68 64 61 60 60 59 59 60 59
296 310 278 5 22 23 23 12 7 353 37 2 360 2 10 18 25 37 39 42 45 51 53 49 56 63 63 63 62 67 71 69 71 76 74 67 65 63 61 60 58 61 57 55
309 333 346 359 10 15 32 30 338 21 331 335 6 15 19 15 24 30 29 34 40 45 46 48 51 55 61 65 66 63 64 66 65 65 67 63 61 58 55 55 52 52 54 53
282 357 37 355 20 348 14 32 20 9 356 342 24 43 33 22 21 17 18 33 34 39 45 46 52 57 64 61 61 63 61 59 59 61 62 59 58 57 56 54 51 50 46 45
70 48 206 9 4 350 0 29 18 3 0 356 360 104 37 15 12 19 22 29 36 42 47 47 49 55 66 65 63 61 59 57 56 59 64 62 59 56 56 58 56 53 48 44
29 80 26 242 327 309 162 41 17 4 3 360 1 63 350 348 1 12 25 29 30 37 48 49 36 48 62 61 59 59 59 60 58 57 59 58 55 54 53 55 59 56 53 43
23 75 291 278 312 300 58 229 9 9 7 18 48 95 277 329 5 19 25 34 34 42 45 43 43 55 64 60 55 56 60 57 55 56 59 57 57 51 51 52 51 43 44 41
68 52 341 13 325 100 198 322 140 3 22 38 15 357 346 6 21 26 31 31 36 49 44 34 38 53 61 56 51 58 61 57 54 53 53 53 60 54 50 47 47 42 36 31
167 205 240 281 162 213 170 157 219 145 135 94 67 46 34 27 28 33 31 34 35 48 54 39 36 46 61 46 55 63 64 57 55 54 50 54 54 53 53 47 47 40 32 21
78 238 237 220 239 183 183 168 139 104 101 102 105 69 44 49 42 39 35 36 35 53 56 49 33 43 48 50 55 68 65 58 50 52 49 40 53 46 45 41 37 37 33 17
245 222 273 224 211 169 156 133 120 102 115 128 123 90 72 66 56 51 52 42 43 58 62 52 42 44 27 20 36 71 66 58 49 46 41 35 34 43 48 34 39 24 345 9
207 180 164 183 171 162 159 169 160 146 128 105 121 120 103 74 50 51 43 27 51 50 58 40 42 42 29 16 30 70 67 54 46 49 38 39 29 17 30 32 30 24 16 14
171 140 79 111 144 151 158 157 159 148 144 143 125 128 121 116 95 85 68 59 55 59 57 47 55 53 16 23 36 62 79 61 52 47 44 34 26 29 12 349 14 14 11 9
122 110 54 219 181 162 136 135 116 105 101 131 131 113 120 123 108 102 95 90 91 77 70 51 57 50 347 17 58 70 69 59 62 50 42 35 29 13 6 15 346 344 359 1
179 12 158 125 122 136 118 136 146 155 147 139 119 143 143 146 149 144 127 76 76 80 50 52 53 27 346 23 68 65 68 57 51 43 39 35 11 6 359 337 313 301 321 350
118 73 107 146 158 157 148 164 166 174 168 148 156 169 160 130 128 139 156 151 125 148 170 100 72 316 326 58 90 70 53 48 49 27 2 3 7 359 348 353 338 347 342 333
121 141 127 154 173 178 191 187 183 174 162 168 176 151 140 135 122 140 166 117 124 159 182 158 169 301 20 59 83 90 73 44 29 28 13 337 307 323 314 338 330 311 284 289
146 178 180 176 175 176 185 182 165 159 177 168 143 147 154 170 174 173 177 155 98 62 248 225 227 201 83 81 98 95 92 77 38 10 315 309 294 291 325 330 302 285 307 312
154 152 152 153 170 170 168 170 169 156 140 149 153 175 177 174 159 155 143 129 145 157 236 213 222 148 155 233 137 115 109 62 355 285 243 275 342 317 309 286 288 294 308 325
147 115 131 131 140 159 160 161 151 156 157 153 146 148 171 183 165 157 161 193 195 198 160 180 176 171 182 195 101 117 137 215 245 256 299 346 333 310 289 276 284 300 312 308
172 158 160 160 166 147 160 155 157 167 166 164 171 181 186 170 166 156 162 205 214 186 184 180 182 193 185 139 132 169 208 232 242 278 322 307 305 286 292 310 320 302 296 294
156 171 173 160 165 167 163 164 167 157 167 172 176 162 157 169 170 187 227 208 193 170 166 180 180 194 182 201 202 222 220 235 257 271 279 275 278 301 305 301 302 297 288 294
153 154 148 164 172 165 123 160 170 169 174 180 180 179 185 179 175 171 210 206 180 179 174 174 189 196 205 193 209 211 225 236 259 263 262 263 264 272 268 289 290 290 298 296
149 159 151 129 128 137 169 188 169 171 174 177 184 179 164 154 174 219 23 138 166 174 182 176 195 201 198 199 206 218 234 253 266 282 285 278 264 274 277 279 290 287 287 292
141 135 138 156 171 190 163 151 132 143 153 164 163 163 167 163 174 180 169 160 165 169 171 190 191 206 185 200 215 230 245 257 269 277 281 284 287 280 277 277 275 277 279 278
161 175 177 185 189 161 152 158 180 172 165 169 168 162 150 136 119 137 155 154 163 173 178 174 185 187 200 208 223 238 252 268 265 267 269 268 263 271 271 277 275 276 275 274
89 123 127 130 211 159 163 173 168 183 183 173 165 160 157 154 147 143 151 155 169 177 176 170 180 196 203 215 232 239 248 256 261 268 251 259 249 255 265 266 268 271 275 271